TimeCST,TemperatureF,Dew PointF,Humidity,Sea Level PressureIn,VisibilityMPH,Wind Direction,Wind SpeedMPH,Gust SpeedMPH,PrecipitationIn,Events,Conditions,WindDirDegrees,DateUTC
12:53 AM,1.0,-8.0,66,30.75,10.0,NNW,10.4,-,N/A,,Clear,330,2012-02-11 06:53:00
1:53 AM,-0.0,-8.0,69,30.77,10.0,NNW,9.2,-,N/A,,Clear,330,2012-02-11 07:53:00
2:53 AM,-0.9,-8.0,72,30.77,10.0,NNW,5.8,-,N/A,,Clear,340,2012-02-11 08:53:00
3:53 AM,-0.9,-9.0,69,30.76,10.0,NNW,8.1,-,N/A,,Clear,340,2012-02-11 09:53:00
4:53 AM,-0.9,-9.0,69,30.77,10.0,North,11.5,-,N/A,,Clear,350,2012-02-11 10:53:00
5:53 AM,-0.9,-9.9,66,30.79,10.0,NNW,8.1,-,N/A,,Clear,340,2012-02-11 11:53:00
6:53 AM,-2.0,-9.9,69,30.82,10.0,NW,5.8,-,N/A,,Clear,320,2012-02-11 12:53:00
7:53 AM,-2.9,-9.9,72,30.84,10.0,WNW,5.8,-,N/A,,Clear,290,2012-02-11 13:53:00
8:53 AM,-0.0,-8.0,69,30.86,10.0,NW,8.1,-,N/A,,Clear,320,2012-02-11 14:53:00
9:53 AM,3.9,-8.0,58,30.86,10.0,NW,8.1,-,N/A,,Clear,320,2012-02-11 15:53:00
10:53 AM,8.1,-7.1,50,30.86,10.0,NNW,4.6,-,N/A,,Clear,340,2012-02-11 16:53:00
11:53 AM,12.9,-4.0,47,30.83,10.0,NNW,3.5,-,N/A,,Clear,330,2012-02-11 17:53:00
12:53 PM,14.0,-5.1,43,30.80,10.0,South,3.5,-,N/A,,Clear,170,2012-02-11 18:53:00
1:53 PM,16.0,-4.0,41,30.78,10.0,SSW,8.1,-,N/A,,Clear,200,2012-02-11 19:53:00
2:53 PM,17.1,-2.9,41,30.76,10.0,SSW,5.8,-,N/A,,Clear,200,2012-02-11 20:53:00
3:53 PM,17.1,-2.9,41,30.75,10.0,SW,6.9,-,N/A,,Clear,220,2012-02-11 21:53:00
4:53 PM,16.0,-0.9,47,30.72,10.0,South,8.1,-,N/A,,Clear,190,2012-02-11 22:53:00
5:53 PM,12.9,-0.0,56,30.72,10.0,South,8.1,-,N/A,,Clear,190,2012-02-11 23:53:00
6:53 PM,7.0,-0.9,70,30.73,10.0,SSW,3.5,-,N/A,,Clear,200,2012-02-12 00:53:00
7:53 PM,3.9,-2.9,73,30.73,10.0,SSW,8.1,-,N/A,,Clear,200,2012-02-12 01:53:00
8:53 PM,1.9,-4.0,76,30.72,10.0,South,4.6,-,N/A,,Clear,190,2012-02-12 02:53:00
9:53 PM,1.0,-5.1,75,30.69,10.0,SSW,3.5,-,N/A,,Clear,210,2012-02-12 03:53:00
10:53 PM,1.0,-6.0,72,30.67,10.0,Calm,Calm,-,N/A,,Clear,0,2012-02-12 04:53:00
11:53 PM,-0.9,-7.1,75,30.66,10.0,Calm,Calm,-,N/A,,Clear,0,2012-02-12 05:53:00